Location: Dallas
(32.7833°N, 96.8000°W)
Time: 01:30:26
(UTC-06:00)

Hubble Space Telescope - Visible Passes

Search period start: 02 December 2020 00:00
Search period end: 12 December 2020 00:00
Orbit: 536 x 540 km, 28.5° (Epoch: 01 December)

Date Brightness Start Highest point End Pass type
(mag) Time Alt. Az. Time Alt. Az. Time Alt. Az.
02 Dec 2.1 18:32:42 10° SW 18:36:17 29° SSE 18:38:14 19° ESE visible
02 Dec 3.9 20:13:11 10° WSW 20:13:33 12° WSW 20:13:33 12° WSW visible
03 Dec 2.0 18:21:42 10° SW 18:25:26 33° SSE 18:28:04 16° ESE visible
03 Dec 3.5 20:02:22 10° WSW 20:03:24 17° WSW 20:03:24 17° WSW visible
04 Dec 1.8 18:10:47 10° WSW 18:14:35 37° S 18:17:55 13° ESE visible
04 Dec 3.1 19:51:34 10° WSW 19:53:14 22° WSW 19:53:14 22° WSW visible
05 Dec 1.7 17:59:53 10° WSW 18:03:45 40° S 18:07:38 10° ESE visible
05 Dec 2.6 19:40:46 10° WSW 19:43:06 29° SW 19:43:06 29° SW visible
06 Dec 1.7 17:49:00 10° WSW 17:52:56 43° S 17:56:51 10° ESE visible
06 Dec 2.1 19:29:58 10° WSW 19:33:01 36° SW 19:33:01 36° SW visible
07 Dec 1.8 19:19:12 10° WSW 19:22:58 37° SSW 19:22:58 37° SSW visible
08 Dec 2.0 19:08:27 10° WSW 19:12:11 33° SSW 19:13:00 30° SSE visible
09 Dec 2.3 18:57:43 10° WSW 19:01:20 29° SSW 19:03:07 21° SSE visible
10 Dec 2.7 18:47:02 10° WSW 18:50:27 25° SSW 18:53:22 13° SE visible
11 Dec 3.0 18:36:24 10° WSW 18:39:35 21° SSW 18:42:46 10° SSE visible
